Weather History for New Philadelphia, OH

Change the Weather History Date:

Saturday, April 28, 2012

  Actual Average Record
Temperature  
Mean Temperature 43 °F 55 °F  
Max Temperature 50 °F 67 °F 90 °F (1990)
Min Temperature 36 °F 42 °F 27 °F (1967)
Degree Days  
Heating Degree Days 22 11  
Month to date heating degree days 428 410  
Since 1 July heating degree days 3014 5396  
Cooling Degree Days 0 0  
Month to date cooling degree days 5 0  
Year to date cooling degree days 18 1  
Moisture  
Dew Point 27 °F    
Average Humidity 54    
Maximum Humidity 76    
Minimum Humidity 31    
Precipitation  
Precipitation 0.01 in 0.13 in 1.13 in (1951)
Month to date precipitation 1.07 3.17  
Year to date precipitation 7.98 11.17  
Sea Level Pressure  
Sea Level Pressure 30.21 in    
Wind  
Wind Speed 4 mph (ENE)    
Max Wind Speed 13 mph    
Max Gust Speed 21 mph    
Visibility 10 miles    
Events Rain    
T = Trace of Precipitation, MM = Missing Value Source: NWS Daily Summary

Daily Weather History Graph

Daily Weather History Graph

Search for Another Location

Airport:

Trip Planner

Search our weather history database for the weather conditions in past years. The results will help you decide how hot, cold, wet, or windy it might be!

Date:

Astronomy

Apr. 28, 2012 Rise Set
Actual Time 6:28 AM EDT 8:18 PM EDT
Civil Twilight 5:58 AM EDT 8:48 PM EDT
Nautical Twilight 5:23 AM EDT 9:24 PM EDT
Astronomical Twilight 4:44 AM EDT 10:02 PM EDT
Moon 12:06 PM EDT (4/28) 1:42 AM EDT (4/28)
Length of Visible Light 14h 49m
Length of Day
13h 50m
Waxing Crescent, 42% of the Moon is Illuminated
Apr 28
Waxing Crescent
Apr 29
First Quarter
May 5
Full
May 12
Last Quarter
May 20
New

Hourly Weather History & Observations

Time (EDT) Temp. Windchill Dew Point Humidity Pressure Visibility Wind Dir Wind Speed Gust Speed Precip Events Conditions
12:53 AM 37.0 °F 31.6 °F 25.0 °F 62% 30.25 in 10.0 mi East 6.9 mph - N/A   Clear
1:53 AM 37.0 °F 33.3 °F 23.0 °F 57% 30.24 in 10.0 mi ESE 4.6 mph - N/A   Clear
3:53 AM 39.0 °F - 27.0 °F 62% 30.28 in 10.0 mi Calm Calm - N/A   Clear
4:53 AM 39.0 °F - 28.0 °F 65% 30.27 in 10.0 mi Calm Calm - N/A   Clear
5:53 AM 39.0 °F 35.7 °F 24.1 °F 55% 30.25 in 10.0 mi East 4.6 mph - N/A   Overcast
7:53 AM 41.0 °F 39.0 °F 21.9 °F 47% 30.27 in 10.0 mi ENE 3.5 mph - N/A   Overcast
8:53 AM 42.1 °F 38.4 °F 19.9 °F 41% 30.27 in 10.0 mi ESE 5.8 mph - N/A   Overcast
9:53 AM 44.1 °F 37.7 °F 19.9 °F 38% 30.23 in 10.0 mi ESE 12.7 mph - N/A   Overcast
10:53 AM 48.0 °F - 21.0 °F 34% 30.22 in 10.0 mi East 9.2 mph - N/A   Overcast
11:53 AM 48.9 °F - 19.9 °F 32% 30.20 in 10.0 mi East 9.2 mph - N/A   Mostly Cloudy
12:53 PM 48.9 °F - 19.9 °F 32% 30.22 in 10.0 mi NE 5.8 mph - N/A   Overcast
1:53 PM 45.0 °F 40.6 °F 28.9 °F 53% 30.22 in 10.0 mi North 8.1 mph - 0.00 in Rain Light Rain
2:53 PM 45.0 °F 41.8 °F 27.0 °F 49% 30.19 in 10.0 mi NE 5.8 mph - 0.00 in   Overcast
3:53 PM 45.0 °F 41.8 °F 28.9 °F 53% 30.17 in 10.0 mi East 5.8 mph - N/A   Overcast
4:53 PM 44.1 °F 41.5 °F 32.0 °F 63% 30.15 in 10.0 mi ENE 4.6 mph - N/A   Overcast
5:53 PM 44.1 °F 41.5 °F 34.0 °F 68% 30.14 in 10.0 mi East 4.6 mph - N/A   Overcast
6:53 PM 44.1 °F 42.5 °F 35.1 °F 71% 30.14 in 10.0 mi NNE 3.5 mph - N/A   Overcast
7:53 PM 44.1 °F - 36.0 °F 73% 30.14 in 10.0 mi Calm Calm - N/A   Overcast
9:53 PM 44.1 °F 41.5 °F 36.0 °F 73% 30.20 in 10.0 mi North 4.6 mph - N/A   Overcast
10:53 PM 44.1 °F 42.5 °F 33.1 °F 65% 30.19 in 10.0 mi North 3.5 mph - N/A   Overcast
11:53 PM 42.1 °F - 33.1 °F 70% 30.22 in 10.0 mi Calm Calm - N/A   Partly Cloudy